This is the latest recevied weather packets stored in our database for station/object YB2YEN-13. If no packets are shown the sender has not sent any weather packets the latest 10 day(s).
| Time | Temp. | Humidity | Pressure | Rain* | Wind** | Luminosity | Snow |
|---|---|---|---|---|---|---|---|
| 1777183285 | 35.56° C | 67% | 975 hPa | - | - | 0 W/m² | - |
| 1777182963 | 35° C | 66% | 975 hPa | - | - | 0 W/m² | - |
| 1777182641 | 33.89° C | 70% | 975 hPa | - | - | 0 W/m² | - |
| 1777182319 | 34.44° C | 70% | 976 hPa | - | - | 0 W/m² | - |
| 1777181997 | 35° C | 70% | 976 hPa | - | - | 0 W/m² | - |
| 1777181675 | 33.89° C | 71% | 976 hPa | - | - | 0 W/m² | - |
| 1777181353 | 33.89° C | 69% | 976 hPa | - | - | 0 W/m² | - |
| 1777181031 | 34.44° C | 76% | 976 hPa | - | - | 0 W/m² | - |
| 1777180709 | 34.44° C | 65% | 976 hPa | - | - | 0 W/m² | - |
| 1777180387 | 34.44° C | 68% | 976 hPa | - | - | 0 W/m² | - |
| 1777180065 | 34.44° C | 71% | 976 hPa | - | - | 0 W/m² | - |
| 1777179743 | 34.44° C | 70% | 976 hPa | - | - | 0 W/m² | - |
| 1777179421 | 33.89° C | 70% | 976 hPa | - | - | 0 W/m² | - |
| 1777179099 | 34.44° C | 73% | 976 hPa | - | - | 0 W/m² | - |
| 1777178777 | 33.89° C | 79% | 976 hPa | - | - | 0 W/m² | - |
| 1777178455 | 33.33° C | 81% | 977 hPa | - | - | 0 W/m² | - |
| 1777178133 | 32.78° C | 79% | 977 hPa | - | - | 0 W/m² | - |
| 1777177811 | 33.33° C | 83% | 977 hPa | - | - | 0 W/m² | - |
| 1777177489 | 32.22° C | 92% | 977 hPa | - | - | 0 W/m² | - |
| 1777177167 | 32.78° C | 95% | 977 hPa | - | - | 0 W/m² | - |
| 1777176845 | 32.78° C | 93% | 977 hPa | - | - | 0 W/m² | - |
| 1777176523 | 32.78° C | 88% | 977 hPa | - | - | 0 W/m² | - |
| 1777176201 | 32.22° C | 91% | 977 hPa | - | - | 0 W/m² | - |
| 1777175879 | 32.22° C | 95% | 977 hPa | - | - | 0 W/m² | - |
| 1777175557 | 32.78° C | 95% | 978 hPa | - | - | 0 W/m² | - |
* Rain since midnight (hover to see other rain measurements)
** Current wind speed in m/s (hover to see current wind gust speed)